Other Public Products
Issued by NWS Grand Forks, ND

Home | Current Version | Previous Version | Text Only | Print | Product List | Glossary Off
Versions: 1 2 3 4 5 6 7 8 9 10 11 12 13 14 15 16 17 18 19 20 21 22 23 24 25 26 27 28 29 30 31 32 33 34 35 36 37 38 39 40 41 42 43 44 45 46 47 48 49 50

000
FPUS83 KFGF 301310
OPUFGF
PRAIRIE TO PINES WEATHER ROUNDUP
NATIONAL WEATHER SERVICE EASTERN NORTH DAKOTA/GRAND FORKS ND
800 AM CDT SAT MAY 30 2015

 **SATELLITE DATA USED TO AUGMENT SKY COVER AT AUTOMATED STATIONS**
 *****  WEATHER ACROSS EASTERN NORTH DAKOTA  *****

CITY           SKY/WX    TMP DP  RH WIND       PRES   REMARKS
GRAND FORKS    MOSUNNY   38  27  64 N13       30.41R
GRAND FORKS AF SUNNY     37  26  64 NE13      30.41R
GRAND CITY NWS   N/A     36 N/A N/A N12         N/A
BUXTON         NOT AVBL
DEVILS LAKE    SUNNY     37  21  52 NE14      30.41S
FARGO          SUNNY     38  29  70 N12       30.37R
WAHPETON ARPT  SUNNY     37  32  81 N13G21    30.34S
$$

 *****  WEATHER ACROSS CENTRAL AND WESTERN NORTH DAKOTA  *****

CITY           SKY/WX    TMP DP  RH WIND       PRES   REMARKS
JAMESTOWN      SUNNY     38  27  64 NE13      30.39R
BISMARCK       SUNNY     39  31  72 E12       30.41R
MINOT          MOSUNNY   39  30  70 E15       30.40S
MINOT AFB      MOSUNNY   40  36  85 SE14      30.40R
GARRISON         N/A     40  30  67 SE13      30.38S
WILLISTON      PTSUNNY   43  35  73 SE15G21   30.33R
DICKINSON      MOSUNNY   38  34  85 SE14      30.31R
HETTINGER      MOSUNNY   40  35  83 E9        30.32S
$$

 *****  OTHER OBSERVATIONS NORTHEAST NORTH DAKOTA  *****

CITY           SKY/WX    TMP DP  RH WIND       PRES   REMARKS
WALHALLA         N/A     36  25  64 MISG      30.45R
LANGDON        FAIR      36  25  64 N12       30.42R
CAVALIER       FAIR      36  27  69 N12       30.44R
GRAFTON        FAIR      36  28  75 N8        30.43S
CANDO          FAIR      36  25  64 E7        30.44R
FORT TOTTEN    NOT AVBL
ROLLA          FAIR      34  25  69 E9        30.44R
RUGBY          NOT AVBL
 ***** THE ABOVE OBSERVATIONS ARE NON NWS ARE NOT QUALITY
        CONTROLLED AND MAY MIS-REPORT RAIN FOR SNOW...
$$

 *****  OTHER OBSERVATIONS SOUTHEAST NORTH DAKOTA *****

CITY           SKY/WX    TMP DP  RH WIND       PRES   REMARKS
COOPERSTOWN    NOT AVBL
VALLEY CITY    FAIR      37  27  65 NE16      30.39R
OAKES            N/A     37  32  81 N16       30.37R
GWINNER        NOT AVBL
BUFFALO        NOT AVBL
WYNDMERE         N/A     37  32  81 N12         N/A
 ***** THE ABOVE OBSERVATIONS ARE NON NWS ARE NOT QUALITY
       CONTROLLED AND MAY MIS-REPORT RAIN FOR SNOW...
$$

  *****  WEATHER ACROSS NORTHERN MINNESOTA  *****

CITY           SKY/WX    TMP DP  RH WIND       PRES   REMARKS
FLAG ISLAND    MOSUNNY   36  25  64 NE14      30.37S
WARROAD        PTSUNNY   37  28  70 N8        30.38S
ROSEAU         SUNNY     36  28  75 N10       30.39R
HALLOCK        SUNNY     37  25  60 N10       30.42R
THF RVR FALLS  SUNNY     36  28  75 N13       30.38S
HALSTAD        NOT AVBL
FOSSTON        SUNNY     37  30  75 N12       30.35R
BAUDETTE       CLOUDY    38  27  64 NE8       30.36R
WASKISH        PTSUNNY   37  28  70 N9        30.35R
CROOKSTON      SUNNY     37  27  65 NE13G18   30.40R
$$
  *****  WEATHER ACROSS CENTRAL AND WEST MINNESOTA  *****

CITY           SKY/WX    TMP DP  RH WIND       PRES   REMARKS
BEMIDJI        CLOUDY    39  31  73 N12G17    30.32R
PARK RAPIDS    CLOUDY    40  32  73 N15       30.29S
WADENA         SUNNY     39  34  81 N13       30.29R
DETROIT LAKES  MOSUNNY   39  32  75 NE10      30.33R
MOORHEAD       SUNNY     36  30  80 N14       30.37S
FERGUS FALLS   SUNNY     39  34  81 NE6       30.33R
ELBOW LAKE     FAIR      41  37  83 N8        30.31R
MORRIS MN      SUNNY     43  37  81 N12       30.30R
STAPLES        PTSUNNY   41  36  81 N9        30.29R
WHEATON        SUNNY     37  32  81 N13G18    30.36R
$$
  *****  WEATHER ELSEWHERE ACROSS MINNESOTA  *****

CITY           SKY/WX    TMP DP  RH WIND       PRES   REMARKS
DULUTH         MOSUNNY   44  34  67 N17G25    30.23R
INTRNTL FALLS  PTSUNNY   36  25  64 N10       30.35R
ELY            NOT AVBL
CLOQUET        SUNNY     43  34  70 N10G18    30.24R
BRAINERD       PTSUNNY   44  34  67 N10G20    30.28R
HIBBING        PTSUNNY   40  30  67 N14       30.27R
ALEXANDRIA     MOSUNNY   42  35  76 NE13      30.30R
SAINT CLOUD    SUNNY     46  37  71 N14G21    30.24R
MINNEAPOLIS    PTSUNNY   49  39  68 N16       30.20R
$$

  *****  WEATHER ACROSS SOUTH DAKOTA  *****

CITY           SKY/WX    TMP DP  RH WIND       PRES   REMARKS
SIOUX FALLS    MOSUNNY   45  38  76 N16       30.26R
BROOKINGS      SUNNY     41  34  75 N13G20    30.29R
WATERTOWN      SUNNY     40  33  76 N15       30.29R
HURON          SUNNY     41  35  79 N17       30.32S
SISSETON         N/A     39  34  82 N16       30.34R
ABERDEEN       SUNNY     41  29  62 N13       30.37R
MITCHELL       SUNNY     44  39  82 N14       30.32R
PIERRE         SUNNY     42  37  82 E9        30.35R
MOBRIDGE       SUNNY     41  36  82 E9        30.37R
RAPID CITY     SUNNY     41  38  89 SE6       30.31R
$$

  *****  SOME WEATHER IN NEARBY STATES *****

CITY           SKY/WX    TMP DP  RH WIND       PRES   REMARKS
GLASGOW MT     MOSUNNY   47  36  65 E20       30.18S
GREAT FALLS MT MOSUNNY   53  47  79 SE7       30.01S
CHEYENNE WY    MOSUNNY   46  43  89 SW10      30.29S
SCOTTSBLUFF NE CLOUDY    48  46  93 SE7       30.30R
OMAHA NE       CLOUDY    53  48  83 N15       30.15R
DES MOINES IA  CLOUDY    57  53  86 N12       30.05R
DAVENPORT IA   CLOUDY    67  63  87 SW8       29.96S
CHICAGO IL     LGT RAIN  67  64  90 W5        29.97S
EAU CLAIRE WI  CLOUDY    52  44  74 N10       30.12R
LA CROSSE WI   CLOUDY    56  50  80 N14       30.07R
$$

  *****  SOME NATIONAL WEATHER *****

CITY           SKY/WX    TMP DP  RH WIND       PRES   REMARKS
LA GUARDIA NY  MOSUNNY   75  64  68 SW10      30.21S
RALEIGH NC     PTSUNNY   74  68  81 SW5       30.24S
ATLANTA GA     MOSUNNY   72  65  78 S9        30.19R
NEW ORLEANS LA PTSUNNY   78  72  81 E3        30.06R
OKLAHOMA CITY  CLOUDY    61  56  83 N21G29    30.09S
ALBUQUERQUE NM MOSUNNY   60  46  59 E16       30.28R
SALT LAKE CITY PTCLDY    58  45  62 SE10      30.10R
LOS ANGELES CA CLOUDY    57  57 100 E3        29.93R FOG
BOISE ID       CLOUDY    66  46  48 NE3       29.90S
SEATTLE WA     MOCLDY    51  47  86 SW5       29.97R
$$

*** WEATHER ACROSS MANITOBA...SASKATCHEWAN AND ONTARIO ***
                ***ONTARIO***

CITY           SKY/WX    TMP DP  RH WIND       PRES   REMARKS
GERALDTON      MOSUNNY   37  30  75 NW17G25   30.17R
THUNDER BAY    MOSUNNY   41  32  70 N14G25    30.25R
SIOUX LOOKOUT  MOSUNNY   32  19  59 N10G20    30.34R WCI  24
TORONTO        PTSUNNY   77  64  65 SW14G20   29.97S
BIG TROUT LK   FLURRIES  27  25  93 N9        30.32R WCI  17
PICKLE LAKE    CLOUDY    30  23  74 NW12G24   30.29R WCI  21
DRYDEN         CLOUDY    34  23  64 N8        30.34R
KENORA         MOSUNNY   36  19  51 N12G18    30.37R
$$
                *** MANITOBA***

CITY           SKY/WX    TMP DP  RH WIND       PRES   REMARKS
BRANDON        CLOUDY    39  28  65 E7        30.45R
DAUPHIN        CLOUDY    36  30  80 W3        30.46R
ISLAND LAKE    CLOUDY    30  23  74 N3        30.43R
PILOT MOUND      N/A     36  23  60 NE9         N/A
THE PAS        MOSUNNY   39  23  52 S6        30.42S
THOMPSON       MOSUNNY   37  25  60 SW8       30.38F
WINNIPEG       PTSUNNY   36  27  69 NE10      30.46R
LYNN LAKE      SUNNY     41  27  56 W8        30.29F
CHURCHILL      PTSUNNY   36  23  60 SW10      30.25F
$$
                ***SASKATCHEWAN***

CITY           SKY/WX    TMP DP  RH WIND       PRES   REMARKS
ESTEVAN        CLOUDY    37  30  75 SE13      30.37S
KINDERSLEY     CLOUDY    45  25  45 E22G29    30.19F
LLOYDMINSTER   PTSUNNY   46  28  49 SE12      30.20F
PRINCE ALBERT  PTSUNNY   39  32  75 E6        30.34S
REGINA         PTSUNNY   39  30  70 SE20      30.34F
YORKTON        SUNNY     37  28  70 S9        30.41S
N. BATTLEFORD  SUNNY     45  30  57 SE12      30.28S


USA.gov is the U.S. government's official web portal to all federal, state and local government web resources and services.